AJ5TT Weather Reports


Display with metric or nautical units.
time (UTC)temp
F
wind
direction
speed
MPH
gust
MPH
rain 1hr
in
rain 24hr
in
rain mn
in
humidity
%
barometer
mb
20260509114603 74 45 0.0 2.0 0.00 0.00 0.00 95 1011.2
20260509113107 74 22 0.0 2.0 0.00 0.00 0.00 95 1011.1
20260509111551 74 0 0.0 2.0 0.00 0.00 0.00 95 1011.0
20260509110054 74 0 0.0 2.0 0.00 0.00 0.00 95 1010.8
20260509104553 74 0 0.0 2.0 0.00 0.00 0.00 95 1010.5
20260509103052 74 0 0.0 0.0 0.00 0.00 0.00 95 1010.5
20260509101555 74 22 0.0 2.0 0.00 0.00 0.00 95 1010.5
20260509100056 74 0 0.0 0.0 0.00 0.00 0.00 95 1010.6
20260509094554 74 0 0.0 1.0 0.00 0.00 0.00 95 1010.4
20260509093054 74 22 0.0 2.0 0.00 0.00 0.00 95 1010.3
20260509091600 74 0 0.0 2.0 0.00 0.00 0.00 95 1010.0
20260509090115 74 22 0.0 2.0 0.00 0.00 0.00 95 1010.0
20260509084552 74 23 0.0 2.0 0.00 0.00 0.00 95 1009.9
20260509083059 74 0 0.0 0.0 0.00 0.00 0.00 95 1010.0
20260509081600 73 0 0.0 0.0 0.00 0.00 0.00 95 1010.3
20260509080109 73 0 0.0 2.0 0.00 0.00 0.00 94 1010.2
20260509074555 73 0 0.0 0.0 0.00 0.00 0.00 95 1010.6
20260509073106 73 0 0.0 0.0 0.00 0.00 0.00 95 1010.7
20260509071556 73 0 0.0 0.0 0.00 0.00 0.00 94 1010.9
20260509070058 72 128 0.0 1.0 0.00 0.00 0.00 94 1010.6
20260509064552 73 0 0.0 1.0 0.00 0.00 0.00 94 1010.6
20260509063109 73 0 0.0 0.0 0.00 0.00 0.00 94 1010.8
20260509061558 74 0 0.0 0.0 0.00 0.00 0.00 93 1010.8
20260509060056 74 0 0.0 1.0 0.00 0.00 0.00 93 1010.8
20260509054554 75 0 0.0 2.0 0.00 0.00 0.00 93 1010.8
20260509053050 75 195 0.0 2.0 0.00 0.00 0.00 93 1011.0
20260509051553 75 145 0.0 2.0 0.00 0.00 0.00 93 1010.8
20260509050104 75 0 0.0 2.0 0.00 0.00 0.00 92 1011.1
20260509044601 76 171 0.0 2.0 0.00 0.00 0.00 92 1011.1
20260509043101 76 186 0.0 2.0 0.00 0.00 0.00 92 1011.3
20260509041555 76 352 0.0 2.0 0.00 0.00 0.00 92 1011.1
20260509040055 75 0 0.0 2.0 0.00 0.00 0.00 92 1011.1
20260509034604 75 54 0.0 3.0 0.00 0.00 0.00 92 1010.8
20260509033109 75 108 1.0 4.0 0.00 0.00 0.00 92 1010.7
20260509031556 75 62 1.0 3.0 0.00 0.00 0.00 92 1010.7
20260509030058 75 61 1.0 4.0 0.00 0.00 0.00 92 1010.6
20260509024603 75 63 1.0 4.0 0.00 0.00 0.00 92 1010.6
20260509023056 75 0 0.0 2.0 0.00 0.00 0.00 92 1010.4
20260509021556 75 14 0.0 3.0 0.00 0.00 0.00 91 1010.5
20260509020057 75 69 1.0 4.0 0.00 0.00 0.00 91 1010.0
20260509014553 75 44 2.0 6.0 0.00 0.00 0.00 91 1010.1
20260509013110 75 76 1.0 3.0 0.00 0.00 0.00 91 1010.2
20260509011602 75 61 1.0 6.0 0.00 0.00 0.00 91 1010.2
20260509010058 75 309 1.0 4.0 0.00 0.00 0.00 91 1009.9
20260509004601 75 38 1.0 8.0 0.00 0.00 0.00 90 1010.1
20260509003053 75 39 3.0 6.0 0.00 0.00 0.00 90 1010.2
20260509001554 75 46 2.0 6.0 0.00 0.00 0.00 89 1009.6
20260509000053 76 45 2.0 5.0 0.00 0.00 0.00 88 1009.8
20260508234556 76 22 1.0 3.0 0.00 0.00 0.00 88 1010.1
20260508233055 76 39 2.0 7.0 0.00 0.00 0.00 87 1010.4
20260508231556 76 37 1.0 4.0 0.00 0.00 0.00 86 1009.8
20260508230056 76 73 1.0 4.0 0.00 0.00 0.00 85 1010.2
20260508224615 77 267 1.0 6.0 0.00 0.00 0.00 84 1010.1
20260508223057 76 360 1.0 4.0 0.00 0.00 0.00 86 1009.9
20260508221611 75 48 2.0 4.0 0.00 0.00 0.00 86 1010.3
20260508220100 75 61 3.0 6.0 0.00 0.00 0.00 86 1010.3
20260508214600 75 9 0.0 2.0 0.00 0.00 0.00 86 1010.5
20260508213058 74 332 0.0 2.0 0.00 0.00 0.00 86 1010.6
20260508211600 75 312 1.0 2.0 0.00 0.00 0.00 85 1010.6
20260508210110 75 63 2.0 6.0 0.00 0.00 0.00 84 1010.7
20260508204610 76 0 0.0 5.0 0.00 0.00 0.00 85 1010.8
20260508203108 76 5 1.0 5.0 0.00 0.00 0.00 84 1010.9
20260508201609 75 49 2.0 5.0 0.00 0.00 0.00 84 1011.3
20260508200111 75 323 0.0 4.0 0.00 0.00 0.00 83 1011.3
20260508194602 77 145 1.0 6.0 0.00 0.00 0.00 83 1011.4
20260508193101 75 79 3.0 6.0 0.00 0.00 0.00 84 1011.5
20260508191553 74 75 2.0 8.0 0.00 0.00 0.00 86 1011.5
20260508190050 71 63 3.0 10.0 0.00 0.00 0.00 91 1011.5
20260508184553 69 30 4.0 11.0 0.00 0.00 0.00 92 1011.8
20260508183130 69 63 3.0 9.0 0.00 0.00 0.00 92 1011.9
20260508181609 69 9 4.0 10.0 0.00 0.00 0.00 91 1012.4
20260508180052 69 40 4.0 8.0 0.00 0.00 0.00 91 1012.3
20260508174555 69 9 3.0 6.0 0.00 0.00 0.00 91 1012.5
20260508173102 69 19 1.0 6.0 0.00 0.00 0.00 91 1012.6
20260508171558 68 74 3.0 10.0 0.00 0.00 0.00 92 1012.2
20260508170052 68 40 4.0 9.0 0.00 0.00 0.00 92 1012.8
20260508164552 68 57 3.0 8.0 0.00 0.00 0.00 92 1013.4
20260508163054 68 74 3.0 7.0 0.00 0.00 0.00 92 1013.5
20260508161608 68 25 2.0 7.0 0.00 0.00 0.00 92 1013.8
20260508154557 68 23 4.0 10.0 0.00 0.00 0.00 92 1013.9
20260508153058 68 32 3.0 10.0 0.00 0.00 0.00 93 1014.0
20260508151555 67 51 3.0 9.0 0.00 0.00 0.00 93 1013.7
20260508150122 67 24 4.0 10.0 0.00 0.00 0.00 93 1013.6
20260508144602 67 36 3.0 7.0 0.00 0.00 0.00 93 1013.6
20260508143054 67 352 3.0 4.0 0.00 0.00 0.00 93 1013.9
20260508141603 67 17 1.0 3.0 0.00 0.00 0.00 93 1014.1
20260508140059 67 24 2.0 5.0 0.00 0.00 0.00 92 1013.8
20260508134551 68 17 3.0 5.0 0.00 0.00 0.00 92 1013.6
20260508133052 68 47 0.0 3.0 0.00 0.00 0.00 92 1013.7
20260508131558 67 58 3.0 6.0 0.00 0.00 0.00 92 1013.9
20260508130056 68 36 2.0 10.0 0.00 0.00 0.00 92 1013.7
20260508124600 68 35 3.0 7.0 0.00 0.00 0.00 92 1013.7
20260508123056 68 44 4.0 8.0 0.00 0.00 0.00 91 1013.8
20260508121559 68 19 3.0 5.0 0.00 0.00 0.00 91 1013.7
20260508120103 68 36 3.0 7.0 0.00 0.00 0.00 91 1013.1